FLOCK 4V-22 (46735 NORAD) Tracking and Keplerian Element Data

This shows tracking and keplerian element data for the satellite.

Feedback or suggestion? Click here.




ElementValue
Catalog46735
NameFLOCK 4V-22
Epoch Orbit668
Epoch Day338.47450295
Epoch Year2020
RAAN49.8708
Inclination97.4506
Eccentricity0.0005072
Argument of Perigee280.4869
Mean Anonmoly79.5817
Mean Motion15.15329064
Decay Rate1.747E-05
L11 46735U 20061BL 20338.47450295 .00001747 00000-0 96194-4 0 9998
L22 46735 97.4506 49.8708 0005072 280.4869 79.5817 15.15329064 6688

Live tracking and technical data element details for FLOCK 4V-22 (NORAD 46735). FLOCK 4V-22 can be tracked NOW for your location showing map with azimuth and elevation plus other details from your city location.

Track the satellite on the map from your city or location and see movement details for azimuth, elevation, latitude, longitude, range, height, and movement on the map or in text.







IsCatalogInMostPopularTable: catalog: 46735, numindb: 12
Update: records affected: 1



GetName: 46735 FLOCK 4V-22

Hit Count: updated at: Sun, 06 Dec 2020 02:09:47 GMT